IBS1743 LEMD-LEMG

Flight info

Callsign IBS1743
Flight time 1h 0m
Altitude 31000
Route VTB N10 CRISA N864 VULPE
Aircraft A320/M-SDE3FGHIRWY/LB1

Departure

Time 2026-05-06 14:28
Airport Adolfo Suárez Madrid–Barajas Airport (LEMD)

Arrival

Time 2026-05-06 15:28
Airport Málaga-Costa del Sol Airport (LEMG)
Time Latitude Longitude Altitude Speed Heading
2026-05-06 14:01 40.49398 -3.58970 2022 ft 0 kts 269°
2026-05-06 14:18 40.49400 -3.58938 2033 ft 4 kts 259°
2026-05-06 14:18 40.49408 -3.58905 2030 ft 4 kts 235°
2026-05-06 14:19 40.49426 -3.58884 2030 ft 4 kts 186°
2026-05-06 14:19 40.49431 -3.58884 2030 ft 0 kts 179°
2026-05-06 14:22 40.49428 -3.58884 2022 ft 2 kts 180°
2026-05-06 14:23 40.49390 -3.58883 2027 ft 9 kts 180°
2026-05-06 14:23 40.49307 -3.58882 2022 ft 15 kts 180°
2026-05-06 14:23 40.49245 -3.58861 2024 ft 8 kts 128°
2026-05-06 14:23 40.49240 -3.58791 2026 ft 7 kts 90°
2026-05-06 14:24 40.49240 -3.58727 2025 ft 7 kts 89°
2026-05-06 14:24 40.49241 -3.58654 2031 ft 11 kts 90°
2026-05-06 14:24 40.49241 -3.58513 2018 ft 18 kts 90°
2026-05-06 14:24 40.49242 -3.58328 2012 ft 21 kts 90°
2026-05-06 14:25 40.49242 -3.58152 2005 ft 18 kts 90°
2026-05-06 14:25 40.49243 -3.57962 2000 ft 23 kts 89°
2026-05-06 14:25 40.49244 -3.57763 1992 ft 21 kts 90°
2026-05-06 14:25 40.49257 -3.57592 1987 ft 18 kts 71°
2026-05-06 14:26 40.49311 -3.57460 1984 ft 9 kts 45°
2026-05-06 14:26 40.49347 -3.57451 1983 ft 0 kts 358°
2026-05-06 14:27 40.49352 -3.57452 1983 ft 5 kts 358°
2026-05-06 14:27 40.49575 -3.57449 1985 ft 70 kts 360°
2026-05-06 14:27 40.50297 -3.57456 1990 ft 134 kts
2026-05-06 14:28 40.51381 -3.57474 2153 ft 170 kts 359°
2026-05-06 14:28 40.52558 -3.57499 2891 ft 169 kts 358°
2026-05-06 14:28 40.53742 -3.57514 3658 ft 170 kts 359°
2026-05-06 14:28 40.54926 -3.57551 4344 ft 171 kts 351°
2026-05-06 14:29 40.56001 -3.58170 4923 ft 171 kts 316°
2026-05-06 14:29 40.56655 -3.59484 5375 ft 180 kts 286°
2026-05-06 14:29 40.57097 -3.61121 5624 ft 204 kts 303°
2026-05-06 14:29 40.58141 -3.62532 5889 ft 228 kts 321°
2026-05-06 14:30 40.59449 -3.63768 6562 ft 233 kts 325°
2026-05-06 14:30 40.60796 -3.64977 7354 ft 235 kts 324°
2026-05-06 14:30 40.62139 -3.66223 8158 ft 237 kts 324°
2026-05-06 14:30 40.63473 -3.67520 8974 ft 239 kts 322°
2026-05-06 14:31 40.64640 -3.69087 9771 ft 241 kts 298°
2026-05-06 14:31 40.65073 -3.71181 10440 ft 246 kts 269°
2026-05-06 14:31 40.64591 -3.73371 10987 ft 255 kts 236°
2026-05-06 14:31 40.63384 -3.75113 11700 ft 259 kts 215°
2026-05-06 14:32 40.61761 -3.76130 12469 ft 261 kts 192°
2026-05-06 14:32 40.59971 -3.76204 13139 ft 268 kts 169°
2026-05-06 14:32 40.58204 -3.75203 13391 ft 290 kts 141°
2026-05-06 14:32 40.56814 -3.73145 13615 ft 314 kts 127°
2026-05-06 14:33 40.55455 -3.70746 13801 ft 337 kts 127°
2026-05-06 14:33 40.54034 -3.68224 14259 ft 347 kts 127°
2026-05-06 14:33 40.52578 -3.65651 14841 ft 353 kts 128°
2026-05-06 14:33 40.51094 -3.63042 15460 ft 359 kts 128°
2026-05-06 14:34 40.49577 -3.60408 16062 ft 363 kts 130°
2026-05-06 14:34 40.47767 -3.58082 16660 ft 367 kts 143°
2026-05-06 14:34 40.45579 -3.56344 17281 ft 370 kts 157°
2026-05-06 14:34 40.43134 -3.55288 17888 ft 372 kts 170°
2026-05-06 14:35 40.40591 -3.54862 18465 ft 375 kts 176°
2026-05-06 14:35 40.37983 -3.54511 19031 ft 378 kts 176°
2026-05-06 14:35 40.35341 -3.54159 19615 ft 380 kts 177°
2026-05-06 14:35 40.32701 -3.53810 20196 ft 383 kts 177°
2026-05-06 14:36 40.30022 -3.53453 20778 ft 387 kts 177°
2026-05-06 14:36 40.27374 -3.53094 21341 ft 389 kts 178°
2026-05-06 14:36 40.24634 -3.52721 21927 ft 393 kts 178°
2026-05-06 14:36 40.21935 -3.52352 22493 ft 395 kts 178°
2026-05-06 14:37 40.19191 -3.51978 23031 ft 398 kts 178°
2026-05-06 14:37 40.16421 -3.51601 23563 ft 401 kts 178°
2026-05-06 14:37 40.13640 -3.51219 24018 ft 404 kts 178°
2026-05-06 14:37 40.10831 -3.50834 24451 ft 406 kts 178°
2026-05-06 14:38 40.08011 -3.50448 24883 ft 409 kts 178°
2026-05-06 14:38 40.05166 -3.50062 25297 ft 411 kts 178°
2026-05-06 14:38 40.02314 -3.49675 25705 ft 413 kts 178°
2026-05-06 14:38 39.99443 -3.49288 26106 ft 415 kts 178°
2026-05-06 14:39 39.96561 -3.48902 26484 ft 417 kts 179°
2026-05-06 14:39 39.93699 -3.48518 26899 ft 419 kts 179°
2026-05-06 14:39 39.90796 -3.48125 27293 ft 421 kts 179°
2026-05-06 14:39 39.87872 -3.47725 27670 ft 423 kts 179°
2026-05-06 14:40 39.84934 -3.47325 28049 ft 425 kts 179°
2026-05-06 14:40 39.81979 -3.46927 28417 ft 427 kts 179°
2026-05-06 14:40 39.79016 -3.46531 28779 ft 429 kts 179°
2026-05-06 14:40 39.76086 -3.46408 29109 ft 424 kts 191°
2026-05-06 14:41 39.73255 -3.47331 29447 ft 416 kts 207°
2026-05-06 14:41 39.70804 -3.49269 29794 ft 410 kts 223°
2026-05-06 14:41 39.68910 -3.52026 30090 ft 408 kts 238°
2026-05-06 14:41 39.67719 -3.55306 30333 ft 409 kts 253°
2026-05-06 14:42 39.66941 -3.58859 30584 ft 410 kts 250°
2026-05-06 14:42 39.65709 -3.62204 30822 ft 412 kts 238°
2026-05-06 14:42 39.61969 -3.67725 30932 ft 396 kts 227°
2026-05-06 14:43 39.58118 -3.72722 30928 ft 388 kts 227°
2026-05-06 14:43 39.54286 -3.77658 30928 ft 387 kts 227°
2026-05-06 14:44 39.50505 -3.82569 30933 ft 386 kts 227°
2026-05-06 14:45 39.44831 -3.89984 30924 ft 385 kts 227°
2026-05-06 14:45 39.41065 -3.94890 30916 ft 385 kts 227°
2026-05-06 14:46 39.37278 -3.99809 30912 ft 385 kts 227°
2026-05-06 14:46 39.34126 -4.03895 30911 ft 385 kts 227°
2026-05-06 14:47 39.29715 -4.09600 30908 ft 385 kts 227°
2026-05-06 14:47 39.25926 -4.14498 30906 ft 385 kts 227°
2026-05-06 14:48 39.22773 -4.18570 30914 ft 385 kts 227°
2026-05-06 14:48 39.18980 -4.23460 30920 ft 384 kts 226°
2026-05-06 14:49 39.15217 -4.28295 30920 ft 384 kts 226°
2026-05-06 14:49 39.11428 -4.33163 30918 ft 384 kts 227°
2026-05-06 14:50 39.07640 -4.38034 30924 ft 384 kts 226°
2026-05-06 14:50 39.03867 -4.42861 30896 ft 384 kts 226°
2026-05-06 14:51 39.00085 -4.47689 30934 ft 382 kts 226°
2026-05-06 14:51 38.96321 -4.52439 30942 ft 381 kts 223°
2026-05-06 14:52 38.91721 -4.55852 30936 ft 388 kts 202°
2026-05-06 14:52 38.86376 -4.57187 30931 ft 392 kts 194°
2026-05-06 14:53 38.80980 -4.58306 30923 ft 392 kts 194°
2026-05-06 14:53 38.75627 -4.59432 30910 ft 392 kts 194°
2026-05-06 14:54 38.70227 -4.60557 30912 ft 392 kts 194°
2026-05-06 14:54 38.64840 -4.61675 30909 ft 391 kts 194°
2026-05-06 14:55 38.59496 -4.62778 30905 ft 391 kts 194°
2026-05-06 14:55 38.54113 -4.63886 30892 ft 390 kts 194°
2026-05-06 14:56 38.48751 -4.64997 30914 ft 388 kts 194°
2026-05-06 14:56 38.43451 -4.66099 30919 ft 387 kts 194°
2026-05-06 14:57 38.38128 -4.67194 30921 ft 387 kts 194°
2026-05-06 14:57 38.32813 -4.68277 30913 ft 386 kts 194°
2026-05-06 14:58 38.27507 -4.69365 30905 ft 386 kts 194°
2026-05-06 14:58 38.22234 -4.70446 30901 ft 385 kts 194°
2026-05-06 14:59 38.16928 -4.71537 30892 ft 385 kts 194°
2026-05-06 14:59 38.11639 -4.72621 30891 ft 385 kts 194°
2026-05-06 15:00 38.06341 -4.73699 30878 ft 384 kts 195°
2026-05-06 15:00 38.01063 -4.74775 30894 ft 383 kts 195°
2026-05-06 15:01 37.95817 -4.75849 30359 ft 382 kts 194°
2026-05-06 15:01 37.93192 -4.76385 29832 ft 379 kts 194°
2026-05-06 15:01 37.90602 -4.76910 29311 ft 374 kts 194°
2026-05-06 15:01 37.88084 -4.77420 28844 ft 369 kts 194°
2026-05-06 15:02 37.85563 -4.77927 28335 ft 364 kts 194°
2026-05-06 15:02 37.83077 -4.78428 27900 ft 359 kts 194°
2026-05-06 15:02 37.80617 -4.78925 27454 ft 355 kts 195°
2026-05-06 15:02 37.78279 -4.79752 26995 ft 345 kts 207°
2026-05-06 15:03 37.76181 -4.81172 26516 ft 338 kts 218°
2026-05-06 15:03 37.74406 -4.83073 26048 ft 333 kts 229°
2026-05-06 15:03 37.72975 -4.85348 25607 ft 330 kts 235°
2026-05-06 15:03 37.71641 -4.87690 25171 ft 327 kts 235°
2026-05-06 15:04 37.70325 -4.89989 24735 ft 325 kts 235°
2026-05-06 15:04 37.69001 -4.92301 24297 ft 324 kts 235°
2026-05-06 15:04 37.67677 -4.94609 23859 ft 323 kts 235°
2026-05-06 15:04 37.66358 -4.96906 23396 ft 323 kts 235°
2026-05-06 15:05 37.65048 -4.99191 23015 ft 321 kts 235°
2026-05-06 15:05 37.63715 -5.01469 22956 ft 324 kts 231°
2026-05-06 15:05 37.62077 -5.03445 22791 ft 328 kts 219°
2026-05-06 15:05 37.60124 -5.04948 22366 ft 328 kts 211°
2026-05-06 15:06 37.58149 -5.06317 22024 ft 327 kts 211°
2026-05-06 15:06 37.56163 -5.07701 21659 ft 325 kts 212°
2026-05-06 15:06 37.54193 -5.09082 21305 ft 324 kts 212°
2026-05-06 15:06 37.52172 -5.10350 20949 ft 324 kts 203°
2026-05-06 15:07 37.49979 -5.11047 20590 ft 327 kts 190°
2026-05-06 15:07 37.47695 -5.11135 20225 ft 329 kts 183°
2026-05-06 15:07 37.45408 -5.11096 19861 ft 328 kts 183°
2026-05-06 15:07 37.43131 -5.11060 19502 ft 326 kts 182°
2026-05-06 15:08 37.40860 -5.11024 19141 ft 325 kts 182°
2026-05-06 15:08 37.38631 -5.10772 18784 ft 327 kts 171°
2026-05-06 15:08 37.36458 -5.09865 18403 ft 330 kts 158°
2026-05-06 15:08 37.34464 -5.08434 18032 ft 330 kts 152°
2026-05-06 15:09 37.32485 -5.06949 17655 ft 328 kts 152°
2026-05-06 15:09 37.30523 -5.05489 17293 ft 326 kts 152°
2026-05-06 15:09 37.28576 -5.04052 17042 ft 324 kts 153°
2026-05-06 15:09 37.26530 -5.02937 16696 ft 318 kts 167°
2026-05-06 15:10 37.24399 -5.02450 16354 ft 313 kts 179°
2026-05-06 15:10 37.22225 -5.02403 16008 ft 311 kts 182°
2026-05-06 15:10 37.20056 -5.02373 15668 ft 310 kts 181°
2026-05-06 15:10 37.17903 -5.02338 15327 ft 309 kts 181°
2026-05-06 15:11 37.15751 -5.02302 14992 ft 308 kts 181°
2026-05-06 15:11 37.13607 -5.02268 14651 ft 306 kts 181°
2026-05-06 15:11 37.11510 -5.02237 14321 ft 305 kts 181°
2026-05-06 15:11 37.09414 -5.02208 14186 ft 296 kts 181°
2026-05-06 15:12 37.07384 -5.02179 14064 ft 287 kts 181°
2026-05-06 15:12 37.05401 -5.02148 13855 ft 282 kts 181°
2026-05-06 15:12 37.03428 -5.02120 13534 ft 282 kts 181°
2026-05-06 15:12 37.01466 -5.02092 13214 ft 280 kts 181°
2026-05-06 15:13 36.99516 -5.02061 12807 ft 282 kts 181°
2026-05-06 15:13 36.97571 -5.02032 12585 ft 277 kts 181°
2026-05-06 15:13 36.95668 -5.01893 12418 ft 271 kts 167°
2026-05-06 15:13 36.94045 -5.00815 12211 ft 270 kts 136°
2026-05-06 15:14 36.93129 -4.98791 11905 ft 273 kts 102°
2026-05-06 15:14 36.93029 -4.96412 11566 ft 275 kts 91°
2026-05-06 15:14 36.93111 -4.94021 11254 ft 275 kts 79°
2026-05-06 15:14 36.93926 -4.91897 10941 ft 273 kts 47°
2026-05-06 15:15 36.95487 -4.90605 10608 ft 270 kts 15°
2026-05-06 15:15 36.97327 -4.90457 10288 ft 265 kts 350°
2026-05-06 15:15 36.99154 -4.90667 9880 ft 269 kts 355°
2026-05-06 15:15 37.01027 -4.90689 9615 ft 266 kts 359°
2026-05-06 15:16 37.02846 -4.90645 9488 ft 256 kts
2026-05-06 15:16 37.04597 -4.90600 9392 ft 249 kts 359°
2026-05-06 15:16 37.06331 -4.90572 9295 ft 249 kts 358°
2026-05-06 15:16 37.08067 -4.90565 9105 ft 249 kts 359°
2026-05-06 15:17 37.09785 -4.90438 8841 ft 246 kts 13°
2026-05-06 15:17 37.11309 -4.89548 8588 ft 246 kts 39°
2026-05-06 15:17 37.12378 -4.87903 8332 ft 246 kts 66°
2026-05-06 15:17 37.12753 -4.85837 8070 ft 243 kts 93°
2026-05-06 15:18 37.12370 -4.83804 7882 ft 240 kts 119°
2026-05-06 15:18 37.11337 -4.82193 7673 ft 238 kts 144°
2026-05-06 15:18 37.09889 -4.81295 7468 ft 235 kts 165°
2026-05-06 15:18 37.08310 -4.80728 7281 ft 236 kts 166°
2026-05-06 15:19 37.06724 -4.80200 7105 ft 234 kts 173°
2026-05-06 15:19 37.05108 -4.80078 7015 ft 233 kts 181°
2026-05-06 15:19 37.03481 -4.80066 7012 ft 234 kts 180°
2026-05-06 15:19 37.01854 -4.80048 7012 ft 234 kts 180°
2026-05-06 15:20 37.00221 -4.80028 7015 ft 234 kts 181°
2026-05-06 15:20 36.98587 -4.80008 6935 ft 234 kts 181°
2026-05-06 15:20 36.96960 -4.79989 6813 ft 234 kts 180°
2026-05-06 15:20 36.95356 -4.79969 6691 ft 233 kts 181°
2026-05-06 15:21 36.93732 -4.79936 6571 ft 234 kts 176°
2026-05-06 15:21 36.92129 -4.79482 6445 ft 234 kts 161°
2026-05-06 15:21 36.90596 -4.78799 6327 ft 234 kts 161°
2026-05-06 15:21 36.89077 -4.78137 6135 ft 235 kts 161°
2026-05-06 15:22 36.87516 -4.77458 5858 ft 237 kts 161°
2026-05-06 15:22 36.86022 -4.76602 5540 ft 236 kts 152°
2026-05-06 15:22 36.84579 -4.75627 5224 ft 235 kts 152°
2026-05-06 15:22 36.83141 -4.74661 4907 ft 234 kts 152°
2026-05-06 15:23 36.81708 -4.73699 4584 ft 234 kts 152°
2026-05-06 15:23 36.80277 -4.72737 4266 ft 233 kts 152°
2026-05-06 15:23 36.78857 -4.71781 3943 ft 231 kts 152°
2026-05-06 15:23 36.77547 -4.70627 3560 ft 232 kts 131°
2026-05-06 15:24 36.76697 -4.68932 3240 ft 231 kts 117°
2026-05-06 15:24 36.75970 -4.67173 2923 ft 223 kts 117°
2026-05-06 15:24 36.75268 -4.65484 2638 ft 216 kts 117°
2026-05-06 15:24 36.74587 -4.63855 2360 ft 207 kts 118°
2026-05-06 15:25 36.73939 -4.62306 2123 ft 196 kts 118°
2026-05-06 15:25 36.73319 -4.60827 1842 ft 188 kts 118°
2026-05-06 15:25 36.72743 -4.59452 1606 ft 173 kts 119°
2026-05-06 15:25 36.72210 -4.58180 1373 ft 157 kts 117°
2026-05-06 15:26 36.71726 -4.57027 1148 ft 148 kts 120°
2026-05-06 15:26 36.71263 -4.55922 997 ft 141 kts 120°
2026-05-06 15:26 36.70818 -4.54863 816 ft 136 kts 120°
2026-05-06 15:26 36.70380 -4.53826 631 ft 133 kts 118°
2026-05-06 15:27 36.69959 -4.52800 476 ft 133 kts 119°
2026-05-06 15:27 36.69533 -4.51790 267 ft 130 kts 118°
2026-05-06 15:27 36.69121 -4.50804 100 ft 129 kts 120°
2026-05-06 15:27 36.68717 -4.49857 50 ft 112 kts 119°
2026-05-06 15:28 36.68432 -4.49184 45 ft 56 kts 117°
2026-05-06 15:28 36.68309 -4.48966 44 ft 25 kts 137°
2026-05-06 15:28 36.68198 -4.48871 40 ft 12 kts 148°
2026-05-06 15:28 36.68139 -4.48851 39 ft 9 kts 198°
2026-05-06 15:29 36.68132 -4.48906 40 ft 6 kts 291°
2026-05-06 15:29 36.68151 -4.48951 39 ft 5 kts 298°
2026-05-06 15:29 36.68172 -4.49002 38 ft 12 kts 297°
2026-05-06 15:29 36.68218 -4.49113 40 ft 14 kts 297°
2026-05-06 15:30 36.68262 -4.49217 40 ft 13 kts 297°
2026-05-06 15:30 36.68276 -4.49313 40 ft 11 kts 250°
2026-05-06 15:30 36.68225 -4.49380 41 ft 10 kts 221°
2026-05-06 15:30 36.68182 -4.49427 41 ft 7 kts 220°
2026-05-06 15:31 36.68150 -4.49461 42 ft 6 kts 220°
2026-05-06 15:31 36.68124 -4.49490 42 ft 5 kts 221°
2026-05-06 15:31 36.68068 -4.49554 42 ft 18 kts 222°
2026-05-06 15:32 36.67854 -4.49789 42 ft 15 kts 221°
2026-05-06 15:32 36.67771 -4.49759 42 ft 15 kts 134°
2026-05-06 15:32 36.67702 -4.49663 42 ft 8 kts 131°
2026-05-06 15:32 36.67694 -4.49622 42 ft 5 kts 58°
2026-05-06 15:33 36.67716 -4.49598 42 ft 4 kts 41°
2026-05-06 15:33 36.67735 -4.49578 42 ft 3 kts 41°
2026-05-06 15:33 36.67737 -4.49575 42 ft 0 kts 41°